C/2017 K5 ( PanSTARRS )

Japanese version
Home page
Updated on October 8, 2017

---------------------------------------------------------------------

* Profile

Discovery Date May 27, 2017
Magnitude 22.0 mag
Discoverer Pan-STARRS 1 telescope (Haleakala)

* Pictures

* Orbital Elements

Epoch 2020 Mar. 12.0 TT = JDT 2458920.5
T 2020 Mar. 25.65733 TT                                 MPCW
q   7.7037919            (2000.0)            P               Q
z  +0.0012491      Peri.  171.58501     +0.19496831     +0.16290847
 +/-0.0004622      Node   102.51585     -0.94766093     +0.28549140
e   0.9903770      Incl.   82.19217     -0.25283616     -0.94443395
From 21 observations 2017 May 27-July 22, mean residual 0".3.

* Magnitudes Graph

        m1 = 6.0 + 5 log d + 10.0 log r

---------------------------------------------------------------------

The orbital elements are published on M.P.E.C. 2017-T14.
The magnitudes graphs are made with Comet for Windows.

---------------------------------------------------------------------

Copyright(C) Seiichi Yoshida (comet@aerith.net). All rights reserved.